Location: Buckeye Ditch
(40.9104°N, 122.9517°W)
Time: 14:09:47
(UTC+00:00)

Explorer 11/Cluster Stage 4 - All Passes

Search period start: 18 May 2025 00:00
Search period end: 28 May 2025 00:00
Orbit: 463 x 1190 km, 28.8° (Epoch: 17 May)

Date Brightness Start Highest point End Pass type
(mag) Time Alt. Az. Time Alt. Az. Time Alt. Az.
18 May - 02:28:44 10° SSW 02:30:54 14° S 02:33:13 10° SE daylight
18 May - 04:15:05 10° SW 04:17:42 16° S 04:20:35 10° SSE visible
19 May - 02:06:53 10° SSW 02:08:49 14° S 02:10:52 10° SE daylight
19 May - 03:53:22 10° SW 03:55:36 14° S 03:58:01 10° SSE visible
20 May - 01:44:59 10° SSW 01:46:44 13° S 01:48:33 10° SE daylight
20 May - 03:31:40 10° SW 03:33:29 13° S 03:35:25 10° SSE daylight
21 May - 01:23:02 10° SSW 01:24:39 13° S 01:26:17 10° SSE daylight
21 May - 03:10:01 10° SSW 03:11:22 12° S 03:12:48 10° SSE daylight
22 May - 01:01:00 10° SSW 01:02:33 12° S 01:04:07 10° SSE daylight
22 May - 02:48:27 10° SSW 02:49:16 11° S 02:50:04 10° S daylight
23 May - 00:38:50 10° SSW 00:40:26 12° S 00:42:01 10° SSE daylight
24 May - 00:16:37 10° SSW 00:18:19 13° S 00:20:00 10° SSE daylight
24 May - 22:08:37 10° S 22:09:26 10° S 22:10:13 10° SSE daylight
24 May - 23:54:18 10° SSW 23:56:11 13° S 23:58:00 10° SSE daylight
25 May - 21:45:34 10° SSW 21:47:14 12° S 21:48:48 10° SSE daylight
25 May - 23:31:53 10° SW 23:34:01 14° S 23:36:03 10° SSE daylight
26 May - 21:22:43 10° SSW 21:25:01 13° S 21:27:09 10° SE daylight
26 May - 23:09:25 10° SW 23:11:51 15° S 23:14:06 10° SSE daylight
27 May - 20:59:54 10° SSW 21:02:46 15° S 21:05:22 10° SE daylight
27 May - 22:46:52 10° SW 22:49:38 16° S 22:52:10 10° SE daylight
